Regional Weather Roundup
Issued by NWS Upton, NY

Current Version | Previous Version | Graphics & Text | Print | Product List | Glossary Off
Versions: 1 2 3 4 5 6 7 8 9 10 11 12 13 14 15 16 17 18 19 20 21 22 23 24 25 26 27 28 29 30 31 32 33 34 35 36 37 38 39 40 41 42 43 44 45 46 47 48 49 50

000
ASUS41 KOKX 020308
RWROKX

REGIONAL WEATHER ROUNDUP
NATIONAL WEATHER SERVICE NEW YORK NY
1100 PM EDT MON JUN 01 2015

NOTE: "FAIR" INDICATES FEW OR NO CLOUDS BELOW 12,000 FEET WITH NO
SIGNIFICANT WEATHER AND/OR OBSTRUCTIONS TO VISIBILITY.

NYZ071-072-176-178-NJZ106-104-020400-
NEW YORK CITY METRO AREA


CITY           SKY/WX    TMP DP  RH WIND       PRES   REMARKS
CENTRAL PARK   RAIN      53  50  89 E13G20    30.18S FOG
LAGUARDIA APRT LGT RAIN  52  50  93 NE21G26   30.16R FOG
KENNEDY INTL   LGT RAIN  53  50  89 NE14      30.15F FOG
NEWARK/LIBERTY LGT RAIN  54  53  94 E13G23    30.15R FOG
BRNX BOT. GARD   N/A     50  48  93 NW9       30.16S
TETERBORO      LGT RAIN  52  48  87 NE6       30.15S
$$

NYZ177-179-078>081-020400-
LONG ISLAND NEW YORK

CITY           SKY/WX    TMP DP  RH WIND       PRES   REMARKS
FARMINGDALE    CLOUDY    52  50  93 NE9       30.15S FOG
ISLIP          DRIZZLE   50  48  93 NE13      30.14R FOG
SHIRLEY        LGT RAIN  50  48  93 VRB6      30.17R FOG
WESTHAMPTON    LGT RAIN  51  49  92 NE8G17    30.18R
MONTAUK POINT    N/A     51  48  89 NE15G23   30.17F
$$

NYZ052-065-067-020400-
HUDSON VALLEY

CITY           SKY/WX    TMP DP  RH WIND       PRES   REMARKS
WHITE PLAINS   DRIZZLE   49  47  93 NE8       30.16S FOG
NEWBURGH       LGT RAIN  48  48 100 E12       30.20R
MONTGOMERY     RAIN      50  49  96 NE8       30.18R FOG
POUGHKEEPSIE   CLOUDY    50  46  86 NE3       30.19R
ALBANY         DRIZZLE   52  49  89 CALM      30.21S
$$

NJZ001-105-106-008-010-013-015-019>022-104-020400-
NEW JERSEY

CITY           SKY/WX    TMP DP  RH WIND       PRES   REMARKS
NEWARK/LIBERTY LGT RAIN  54  53  94 E13G23    30.15R FOG
TETERBORO      LGT RAIN  52  48  87 NE6       30.15S
CALDWELL       CLOUDY    52  49  89 E9        30.16R
MORRISTOWN     LGT RAIN  55  52  88 NE6       30.16R
SOMERVILLE     CLOUDY    55  51  86 VRB5      30.12R
SUSSEX         RAIN      51  48  89 NE7       30.17S FOG
ANDOVER          N/A     52  52 100 NE5       30.15R
TRENTON        LGT RAIN  56  54  93 NE7       30.12R
MILLVILLE      HVY RAIN  63  62  97 NE7       30.07F FOG
ATLANTIC CITY  RAIN      61  60  97 NE3       30.09R FOG
WRIGHTSTOWN    LGT RAIN  55  55  99 NE13      30.10R
TOMS RIVER     CLOUDY   N/A N/A N/A NE12      30.11R
BELMAR         CLOUDY    54  46  76 E14G22    30.11F
$$

PAZ047>061-062-071-020400-
EASTERN PENNSYLVANIA

CITY           SKY/WX    TMP DP  RH WIND       PRES   REMARKS
PHILADELPHIA   RAIN      60  57  89 NE10      30.10F FOG
ALLENTOWN      LGT RAIN  56  53  90 NE12      30.13R
SCRANTON       CLOUDY    56  51  84 NE5       30.13S
$$

CTZ002-004>006-009-010-012-RIZ004-006-007-MAZ004-011-015-020400-
SOUTHERN NEW ENGLAND
 IN CT

CITY           SKY/WX    TMP DP  RH WIND       PRES   REMARKS
BRADLEY INTL   LGT RAIN  48  45  89 N9        30.22S FOG
HARTFORD       RAIN      47  46  97 N9        30.21S FOG
DANBURY        LGT RAIN  47  44  90 NE9       30.20R
WTRBRY/OXFORD  CLOUDY    46  39  76 NE9       30.19S
BRIDGEPORT     CLOUDY    50  48  93 NE14      30.19R FOG
MERIDEN        RAIN      49  45  86 NE6       30.20S FOG
NEW HAVEN      CLOUDY    49  47  93 NE9       30.18S
CHESTER        RAIN      46  46 100 NE8       30.18S
GROTON         LGT RAIN  49  47  93 NE8       30.17S
WILLIMANTIC    LGT RAIN  48  45  89 NE9       30.19F

 IN RI

CITY           SKY/WX    TMP DP  RH WIND       PRES   REMARKS
PROVIDENCE     LGT RAIN  48  46  93 NE12      30.21F
BLOCK ISLAND   CLOUDY    50  46  87 NE16G23   30.18R
WESTERLY       RAIN      48  47  96 NE7       30.18R

 IN MA

CITY           SKY/WX    TMP DP  RH WIND       PRES   REMARKS
BOSTON         RAIN      47  46  97 NE16G23   30.25F FOG
WORCESTER      LGT RAIN  45  43  93 NE16G31   30.21F
WESTFIELD      RAIN      48  45  89 N9        30.23S FOG
PROVINCETOWN   CLOUDY    48  45  87 NE15      30.21F
NANTUCKET      CLOUDY    53  51  93 NE13      30.15F FOG
$$

ANZ330-335-338-340-345-350-353-355-020400-
COASTAL MARINE OBSERVATIONS


STATION/POSITION TIME  SKY/WX   TEMP    WIND        PRES    VSBY  WAVE
                                AIR SEA DIR/SP/G                  HT/PER
                 (UTC)          (F)     (DEG/KT/KT) (MB)    (MI)  (FT/S)
NY HARB ENTRANCE 0250            54 60   60/ 21/ 25 1019.5          6/ 6
4S FIRE IS       0203               53                N/A           5/ 6
20S FIRE ISLAND  0250            55 59   60/ 21/ 25 1019.2          7/ 6
GREAT SOUTH BAY  0200            53 67   40/ 16/ 19   N/A
23SW MTP         0250            53 56   60/ 19/ 23 1020.0          6/ 6
HUDSON CANYON    NOT AVBL
KINGS POINT      0200            52 56   40/  4/ 13 1020.7
CENTRAL LI SOUND 0200            50 56   70/ 16/ 17   N/A
EASTERN LI SOUND 0200            50      40/ 12/ 16   N/A
ROBBINS REEF     0200            53      50/ 19/ 22 1019.4
$$


>>>>>>>>>>>>>>>>>>>>>>>>>>>> KEY <<<<<<<<<<<<<<<<<<<<<<<<<<<
>                                                          <
>     SKY/WX - SKY CONDITION/PRESENT WEATHER               <
>     TMP    - TEMPERATURE IN FAHRENHEIT                   <
>     DP     - DEWPOINT IN FAHRENHEIT                      <
>     RH     - RELATIVE HUMIDITY IN PERCENT                <
>     WIND   - DIRECTION AND SPEED IN MPH                  <
>     PRES   - MEAN SEA LEVEL PRESSURE IN INCHES OF HG     <
>     WCI    - WIND CHILL INDEX                            <
>     VSB    - VISIBILITY IN MILES                         <
>     HX     - HEAT INDEX                                  <
>     TC     - TEMPERATURE IN CELSIUS                      <
>     VRB    - VARIABLE WIND DIRECTION                     <
>                                                          <
>>>>>>>>>>>>>>>>>>>>>>>>>>>> KEY <<<<<<<<<<<<<<<<<<<<<<<<<<<




USA.gov is the U.S. government's official web portal to all federal, state and local government web resources and services.